N30CX KOKC-KFOE

Flight info

Callsign N30CX
Flight time 0h 51m
Altitude 17000
Route PER EMP KICRE
Aircraft SF50/L-VGDW/C

Departure

Time 2026-04-28 01:10
Airport OKC Will Rogers World Airport (KOKC)

Arrival

Time 2026-04-28 02:02
Airport Topeka Regional Airport (KFOE)
Time Latitude Longitude Altitude Speed Heading
2026-04-28 00:47 35.39582 -97.58577 1283 ft 0 kts 360°
2026-04-28 01:04 35.39597 -97.58579 1282 ft 9 kts 339°
2026-04-28 01:04 35.39683 -97.58609 1281 ft 15 kts
2026-04-28 01:05 35.39717 -97.58701 1281 ft 15 kts 269°
2026-04-28 01:05 35.39600 -97.58743 1284 ft 23 kts 182°
2026-04-28 01:05 35.39434 -97.58742 1285 ft 25 kts 181°
2026-04-28 01:05 35.39244 -97.58742 1288 ft 25 kts 180°
2026-04-28 01:06 35.39067 -97.58743 1292 ft 23 kts 182°
2026-04-28 01:06 35.38916 -97.58742 1292 ft 16 kts 181°
2026-04-28 01:06 35.38844 -97.58742 1292 ft 7 kts 178°
2026-04-28 01:06 35.38742 -97.58742 1292 ft 17 kts 182°
2026-04-28 01:07 35.38599 -97.58742 1291 ft 23 kts 182°
2026-04-28 01:07 35.38451 -97.58738 1290 ft 21 kts 179°
2026-04-28 01:07 35.38324 -97.58671 1290 ft 19 kts 152°
2026-04-28 01:07 35.38214 -97.58626 1288 ft 17 kts 175°
2026-04-28 01:08 35.38066 -97.58624 1286 ft 22 kts 179°
2026-04-28 01:08 35.37919 -97.58641 1283 ft 15 kts 206°
2026-04-28 01:08 35.37858 -97.58701 1281 ft 9 kts 214°
2026-04-28 01:08 35.37832 -97.58791 1279 ft 6 kts 272°
2026-04-28 01:09 35.37866 -97.58891 1278 ft 9 kts 352°
2026-04-28 01:09 35.37869 -97.58892 1278 ft 0 kts 359°
2026-04-28 01:09 35.38083 -97.58889 1282 ft 65 kts
2026-04-28 01:10 35.38730 -97.58890 1315 ft 114 kts 360°
2026-04-28 01:10 35.39597 -97.58886 1404 ft 153 kts 360°
2026-04-28 01:10 35.40775 -97.58899 1829 ft 172 kts 359°
2026-04-28 01:10 35.41843 -97.58702 2822 ft 152 kts 12°
2026-04-28 01:11 35.42809 -97.58410 3614 ft 140 kts 14°
2026-04-28 01:11 35.43705 -97.58130 4290 ft 132 kts 14°
2026-04-28 01:11 35.44560 -97.57858 4886 ft 127 kts 14°
2026-04-28 01:11 35.45395 -97.57588 5429 ft 124 kts 14°
2026-04-28 01:12 35.46241 -97.57316 5643 ft 128 kts 13°
2026-04-28 01:12 35.47243 -97.56995 5392 ft 154 kts 13°
2026-04-28 01:12 35.48432 -97.56827 5117 ft 174 kts 351°
2026-04-28 01:12 35.49672 -97.57060 5026 ft 180 kts 349°
2026-04-28 01:13 35.50907 -97.57348 5014 ft 182 kts 348°
2026-04-28 01:13 35.53820 -97.58096 5031 ft 238 kts 347°
2026-04-28 01:13 35.55608 -97.58564 5025 ft 256 kts 347°
2026-04-28 01:14 35.57562 -97.59078 5162 ft 258 kts 347°
2026-04-28 01:14 35.59300 -97.59536 5018 ft 253 kts 347°
2026-04-28 01:14 35.60999 -97.59984 5012 ft 244 kts 347°
2026-04-28 01:14 35.62647 -97.60419 5012 ft 240 kts 347°
2026-04-28 01:15 35.64318 -97.60859 5014 ft 241 kts 347°
2026-04-28 01:15 35.66285 -97.61378 5020 ft 248 kts 347°
2026-04-28 01:15 35.68244 -97.61896 5020 ft 253 kts 347°
2026-04-28 01:15 35.70143 -97.62398 5020 ft 256 kts 347°
2026-04-28 01:16 35.72080 -97.62910 5028 ft 258 kts 347°
2026-04-28 01:16 35.73844 -97.63260 5323 ft 248 kts
2026-04-28 01:16 35.75770 -97.62554 5649 ft 241 kts 19°
2026-04-28 01:16 35.77557 -97.61732 5943 ft 237 kts 20°
2026-04-28 01:17 35.79231 -97.60955 6227 ft 248 kts 20°
2026-04-28 01:17 35.80911 -97.60171 6533 ft 256 kts 20°
2026-04-28 01:17 35.82608 -97.59379 6851 ft 261 kts 20°
2026-04-28 01:17 35.84474 -97.58508 7204 ft 264 kts 20°
2026-04-28 01:18 35.86479 -97.57571 7586 ft 267 kts 20°
2026-04-28 01:18 35.88310 -97.56715 7934 ft 268 kts 20°
2026-04-28 01:18 35.90154 -97.55854 8284 ft 269 kts 20°
2026-04-28 01:18 35.91959 -97.55010 8624 ft 270 kts 20°
2026-04-28 01:19 35.93819 -97.54142 8974 ft 271 kts 20°
2026-04-28 01:19 35.95855 -97.53193 9352 ft 271 kts 20°
2026-04-28 01:19 35.97821 -97.52275 9716 ft 272 kts 20°
2026-04-28 01:19 35.99710 -97.51392 10064 ft 272 kts 19°
2026-04-28 01:20 36.01594 -97.50511 10410 ft 272 kts 19°
2026-04-28 01:20 36.03383 -97.49675 10737 ft 273 kts 19°
2026-04-28 01:20 36.05363 -97.48749 11097 ft 273 kts 19°
2026-04-28 01:20 36.07431 -97.47781 11472 ft 272 kts 19°
2026-04-28 01:21 36.09324 -97.46895 11814 ft 272 kts 19°
2026-04-28 01:21 36.11219 -97.46007 12154 ft 272 kts 19°
2026-04-28 01:21 36.13044 -97.45151 12489 ft 272 kts 19°
2026-04-28 01:21 36.14843 -97.44307 12806 ft 272 kts 19°
2026-04-28 01:22 36.16867 -97.43358 13165 ft 272 kts 19°
2026-04-28 01:22 36.18755 -97.42471 13496 ft 271 kts 18°
2026-04-28 01:22 36.20605 -97.41603 13819 ft 271 kts 18°
2026-04-28 01:22 36.22455 -97.40734 14139 ft 271 kts 18°
2026-04-28 01:23 36.24231 -97.39899 14444 ft 271 kts 18°
2026-04-28 01:23 36.26172 -97.38986 14775 ft 271 kts 18°
2026-04-28 01:23 36.28152 -97.38054 15111 ft 271 kts 18°
2026-04-28 01:23 36.30036 -97.37167 15428 ft 271 kts 18°
2026-04-28 01:24 36.31933 -97.36273 15744 ft 271 kts 18°
2026-04-28 01:24 36.33718 -97.35432 16040 ft 271 kts 18°
2026-04-28 01:24 36.35611 -97.34539 16350 ft 271 kts 19°
2026-04-28 01:24 36.37670 -97.33567 16681 ft 272 kts 19°
2026-04-28 01:25 36.39612 -97.32651 16958 ft 273 kts 19°
2026-04-28 01:25 36.41557 -97.31733 17032 ft 283 kts 19°
2026-04-28 01:25 36.43502 -97.30814 17040 ft 291 kts 19°
2026-04-28 01:25 36.45443 -97.29896 17050 ft 297 kts 19°
2026-04-28 01:26 36.47721 -97.28818 17036 ft 302 kts 19°
2026-04-28 01:26 36.49985 -97.27746 17033 ft 305 kts 19°
2026-04-28 01:26 36.52100 -97.26743 17032 ft 307 kts 19°
2026-04-28 01:26 36.54265 -97.25716 17031 ft 308 kts 19°
2026-04-28 01:27 36.56309 -97.24747 17030 ft 309 kts 19°
2026-04-28 01:27 36.58469 -97.23721 17029 ft 310 kts 19°
2026-04-28 01:27 36.60789 -97.22620 17028 ft 310 kts 19°
2026-04-28 01:27 36.63002 -97.21568 17026 ft 311 kts 19°
2026-04-28 01:28 36.65131 -97.20556 17022 ft 311 kts 19°
2026-04-28 01:28 36.67159 -97.19591 17016 ft 311 kts 19°
2026-04-28 01:28 36.69185 -97.18626 17020 ft 311 kts 19°
2026-04-28 01:28 36.71435 -97.17554 17020 ft 311 kts 19°
2026-04-28 01:29 36.73619 -97.16514 17021 ft 311 kts 19°
2026-04-28 01:29 36.75754 -97.15735 16993 ft 308 kts 360°
2026-04-28 01:29 36.77965 -97.15729 17029 ft 305 kts 357°
2026-04-28 01:29 36.80075 -97.15727 17022 ft 306 kts 358°
2026-04-28 01:30 36.82477 -97.15723 17022 ft 306 kts 358°
2026-04-28 01:30 36.84941 -97.15718 17022 ft 306 kts 358°
2026-04-28 01:30 36.87228 -97.15714 17022 ft 307 kts 358°
2026-04-28 01:30 36.89507 -97.15710 17022 ft 307 kts 358°
2026-04-28 01:31 36.91721 -97.15706 17025 ft 307 kts 358°
2026-04-28 01:31 36.93874 -97.15702 17027 ft 307 kts 358°
2026-04-28 01:31 36.96392 -97.15699 17037 ft 306 kts 358°
2026-04-28 01:31 36.98792 -97.16091 17042 ft 301 kts 333°
2026-04-28 01:32 37.00695 -97.17739 17034 ft 301 kts 331°
2026-04-28 01:32 37.02919 -97.18131 17057 ft 307 kts
2026-04-28 01:32 37.04894 -97.17083 17078 ft 310 kts 31°
2026-04-28 01:32 37.06918 -97.15484 17062 ft 311 kts 31°
2026-04-28 01:33 37.09050 -97.13756 17062 ft 311 kts 32°
2026-04-28 01:33 37.10963 -97.12197 17061 ft 312 kts 32°
2026-04-28 01:33 37.12885 -97.10628 17061 ft 312 kts 32°
2026-04-28 01:33 37.14770 -97.09087 17062 ft 312 kts 32°
2026-04-28 01:34 37.16576 -97.07610 17062 ft 312 kts 32°
2026-04-28 01:34 37.18602 -97.05952 17062 ft 312 kts 32°
2026-04-28 01:34 37.20554 -97.04354 17062 ft 312 kts 32°
2026-04-28 01:34 37.22454 -97.02796 17063 ft 312 kts 32°
2026-04-28 01:35 37.24357 -97.01236 17063 ft 312 kts 32°
2026-04-28 01:35 37.26168 -96.99750 17063 ft 312 kts 32°
2026-04-28 01:35 37.28310 -96.97991 17063 ft 312 kts 32°
2026-04-28 01:35 37.30453 -96.96230 17064 ft 312 kts 32°
2026-04-28 01:36 37.32422 -96.94612 17064 ft 312 kts 32°
2026-04-28 01:36 37.34372 -96.93008 17068 ft 312 kts 32°
2026-04-28 01:36 37.36215 -96.91491 17071 ft 312 kts 32°
2026-04-28 01:36 37.38105 -96.89934 17073 ft 312 kts 32°
2026-04-28 01:37 37.40270 -96.88150 17075 ft 312 kts 32°
2026-04-28 01:37 37.42274 -96.86497 17073 ft 312 kts 32°
2026-04-28 01:37 37.44210 -96.84901 17103 ft 312 kts 32°
2026-04-28 01:37 37.46130 -96.83315 17106 ft 313 kts 32°
2026-04-28 01:38 37.47957 -96.81808 17107 ft 313 kts 32°
2026-04-28 01:38 37.49974 -96.80138 17095 ft 312 kts 32°
2026-04-28 01:38 37.52097 -96.78380 17094 ft 311 kts 32°
2026-04-28 01:38 37.54046 -96.76767 17094 ft 311 kts 32°
2026-04-28 01:39 37.55966 -96.75175 17094 ft 311 kts 32°
2026-04-28 01:39 37.57834 -96.73627 17094 ft 310 kts 32°
2026-04-28 01:39 37.59638 -96.72131 17094 ft 310 kts 32°
2026-04-28 01:39 37.61743 -96.70383 17094 ft 310 kts 32°
2026-04-28 01:40 37.63750 -96.68716 17094 ft 310 kts 32°
2026-04-28 01:40 37.65663 -96.67127 17094 ft 310 kts 32°
2026-04-28 01:40 37.67549 -96.65559 17095 ft 310 kts 32°
2026-04-28 01:40 37.69374 -96.64040 17095 ft 310 kts 32°
2026-04-28 01:41 37.71266 -96.62464 17095 ft 310 kts 32°
2026-04-28 01:41 37.73297 -96.60772 17095 ft 310 kts 32°
2026-04-28 01:41 37.75226 -96.59164 17095 ft 310 kts 32°
2026-04-28 01:41 37.77111 -96.57592 17095 ft 310 kts 32°
2026-04-28 01:42 37.78995 -96.56019 17095 ft 310 kts 32°
2026-04-28 01:42 37.80803 -96.54508 17095 ft 310 kts 32°
2026-04-28 01:42 37.82828 -96.52816 17095 ft 310 kts 32°
2026-04-28 01:42 37.84911 -96.51074 17095 ft 310 kts 32°
2026-04-28 01:43 37.86872 -96.49433 17096 ft 310 kts 32°
2026-04-28 01:43 37.88833 -96.47791 17096 ft 310 kts 32°
2026-04-28 01:43 37.90681 -96.46242 17096 ft 310 kts 32°
2026-04-28 01:43 37.92544 -96.44677 17092 ft 310 kts 32°
2026-04-28 01:44 37.94709 -96.42857 17091 ft 310 kts 31°
2026-04-28 01:44 37.96743 -96.41147 17102 ft 312 kts 31°
2026-04-28 01:44 37.98676 -96.39522 17100 ft 314 kts 30°
2026-04-28 01:44 38.00670 -96.37856 17104 ft 315 kts 31°
2026-04-28 01:45 38.02513 -96.36311 17096 ft 316 kts 31°
2026-04-28 01:45 38.04556 -96.34594 16804 ft 312 kts 33°
2026-04-28 01:45 38.06702 -96.32781 16456 ft 309 kts 33°
2026-04-28 01:45 38.08669 -96.31121 16136 ft 307 kts 33°
2026-04-28 01:46 38.10618 -96.29476 15819 ft 306 kts 33°
2026-04-28 01:46 38.12515 -96.27875 15510 ft 304 kts 33°
2026-04-28 01:46 38.14325 -96.26345 15216 ft 304 kts 33°
2026-04-28 01:46 38.16425 -96.24571 14877 ft 303 kts 33°
2026-04-28 01:47 38.18450 -96.22858 14551 ft 302 kts 33°
2026-04-28 01:47 38.20368 -96.21235 14257 ft 301 kts 33°
2026-04-28 01:47 38.22220 -96.19666 13984 ft 300 kts 33°
2026-04-28 01:47 38.23985 -96.18171 13743 ft 298 kts 33°
2026-04-28 01:48 38.25883 -96.16562 13471 ft 297 kts 33°
2026-04-28 01:48 38.27868 -96.14877 13202 ft 296 kts 33°
2026-04-28 01:48 38.29633 -96.13051 12973 ft 295 kts 50°
2026-04-28 01:48 38.31149 -96.10976 12676 ft 295 kts 47°
2026-04-28 01:49 38.32620 -96.08968 12471 ft 293 kts 46°
2026-04-28 01:49 38.34023 -96.07042 12233 ft 294 kts 46°
2026-04-28 01:49 38.35611 -96.04851 12032 ft 292 kts 46°
2026-04-28 01:49 38.37289 -96.02799 11778 ft 289 kts 27°
2026-04-28 01:50 38.39209 -96.01568 11396 ft 280 kts 25°
2026-04-28 01:50 38.41069 -96.00393 10671 ft 281 kts 25°
2026-04-28 01:50 38.42860 -95.99266 9967 ft 280 kts 25°
2026-04-28 01:50 38.44704 -95.98110 9277 ft 278 kts 25°
2026-04-28 01:51 38.46698 -95.96862 8547 ft 275 kts 25°
2026-04-28 01:51 38.48472 -95.95751 7866 ft 268 kts 25°
2026-04-28 01:51 38.50148 -95.94702 7210 ft 262 kts 25°
2026-04-28 01:51 38.51730 -95.93710 7028 ft 240 kts 25°
2026-04-28 01:52 38.53200 -95.92787 6998 ft 219 kts 25°
2026-04-28 01:52 38.54682 -95.91858 6993 ft 204 kts 25°
2026-04-28 01:52 38.55969 -95.91052 7001 ft 199 kts 25°
2026-04-28 01:52 38.57292 -95.90221 7002 ft 196 kts 25°
2026-04-28 01:53 38.58594 -95.89405 7003 ft 193 kts 25°
2026-04-28 01:53 38.59821 -95.88634 7004 ft 191 kts 24°
2026-04-28 01:53 38.61288 -95.88162 7010 ft 184 kts 347°
2026-04-28 01:53 38.62746 -95.88573 7011 ft 183 kts 345°
2026-04-28 01:54 38.64119 -95.88963 7008 ft 182 kts 345°
2026-04-28 01:54 38.65477 -95.89354 7004 ft 182 kts 345°
2026-04-28 01:54 38.66750 -95.89449 6999 ft 184 kts 16°
2026-04-28 01:54 38.68053 -95.88564 7023 ft 219 kts 37°
2026-04-28 01:55 38.69334 -95.86993 7020 ft 248 kts 46°
2026-04-28 01:55 38.70524 -95.85252 7014 ft 265 kts 49°
2026-04-28 01:55 38.71729 -95.83413 7149 ft 271 kts 49°
2026-04-28 01:55 38.72943 -95.81541 7228 ft 271 kts 49°
2026-04-28 01:56 38.74215 -95.79577 6792 ft 262 kts 49°
2026-04-28 01:56 38.75521 -95.77556 6252 ft 258 kts 49°
2026-04-28 01:56 38.76770 -95.75623 5743 ft 256 kts 49°
2026-04-28 01:56 38.77983 -95.73745 5247 ft 253 kts 49°
2026-04-28 01:57 38.79154 -95.71925 4761 ft 251 kts 49°
2026-04-28 01:57 38.80252 -95.70225 4309 ft 249 kts 49°
2026-04-28 01:57 38.81502 -95.68290 3795 ft 247 kts 49°
2026-04-28 01:57 38.82660 -95.66490 3388 ft 239 kts 49°
2026-04-28 01:58 38.83692 -95.64887 3303 ft 218 kts 49°
2026-04-28 01:58 38.84672 -95.63363 3140 ft 207 kts 49°
2026-04-28 01:58 38.85530 -95.62030 2765 ft 181 kts 49°
2026-04-28 01:58 38.86315 -95.60809 2452 ft 169 kts 49°
2026-04-28 01:59 38.87148 -95.59517 2319 ft 168 kts 48°
2026-04-28 01:59 38.88178 -95.58872 2323 ft 158 kts
2026-04-28 01:59 38.89227 -95.59173 2295 ft 155 kts 334°
2026-04-28 01:59 38.90039 -95.60029 2289 ft 141 kts 317°
2026-04-28 02:00 38.90756 -95.60892 2089 ft 132 kts 317°
2026-04-28 02:00 38.91453 -95.61721 1828 ft 123 kts 317°
2026-04-28 02:00 38.92051 -95.62466 1526 ft 106 kts 311°
2026-04-28 02:00 38.92598 -95.63121 1341 ft 112 kts 320°
2026-04-28 02:01 38.93226 -95.63860 1280 ft 119 kts 321°
2026-04-28 02:01 38.93857 -95.64606 1169 ft 112 kts 318°
2026-04-28 02:01 38.94402 -95.65257 1043 ft 100 kts 319°
2026-04-28 02:01 38.94892 -95.65816 1035 ft 70 kts 315°
2026-04-28 02:02 38.95242 -95.66211 1046 ft 47 kts 316°
2026-04-28 02:02 38.95435 -95.66471 1050 ft 36 kts 313°
2026-04-28 02:02 38.95586 -95.66683 1055 ft 25 kts 272°
2026-04-28 02:02 38.95575 -95.66771 1056 ft 0 kts 257°
2026-04-28 02:03 38.95564 -95.66864 1056 ft 19 kts 265°
2026-04-28 02:03 38.95559 -95.66891 1056 ft 1 kts 269°
2026-04-28 02:03 38.95530 -95.66998 1058 ft 28 kts 254°
2026-04-28 02:04 38.95478 -95.67188 1061 ft 13 kts 175°
2026-04-28 02:04 38.95343 -95.67192 1061 ft 20 kts 188°
2026-04-28 02:04 38.95177 -95.67191 1061 ft 29 kts 177°
2026-04-28 02:04 38.95130 -95.67312 1061 ft 21 kts 284°
2026-04-28 02:05 38.95040 -95.67464 1060 ft 25 kts 180°
2026-04-28 02:05 38.94831 -95.67413 1061 ft 33 kts 160°
2026-04-28 02:05 38.94682 -95.67371 1061 ft 8 kts 228°
2026-04-28 02:05 38.94627 -95.67481 1062 ft 12 kts 264°
2026-04-28 02:06 38.94614 -95.67498 1062 ft 0 kts 117°
2026-04-28 02:08 38.94615 -95.67498 1062 ft 0 kts 117°